Location: LDNL
(36.4545°S, 141.6685°E)
Time: 20:22:47
(UTC+10:00)

STRAND 1 - Visible Passes

Search period start: 22 May 2022 00:00
Search period end: 01 June 2022 00:00
Orbit: 767 x 780 km, 98.4° (Epoch: 21 May)

Date Brightness Start Highest point End Pass type
(mag) Time Alt. Az. Time Alt. Az. Time Alt. Az.
22 May ? 06:50:13 10° SE 06:54:42 29° E 06:59:08 10° NNE visible
22 May ? 18:03:22 10° NE 18:07:56 33° ESE 18:12:33 10° S visible
22 May ? 19:42:45 10° NNW 19:47:04 26° W 19:51:25 10° SW visible
23 May ? 06:17:49 10° ESE 06:20:14 13° E 06:22:38 10° ENE visible
23 May ? 19:07:40 10° N 19:12:45 58° W 19:17:53 10° SSW visible
24 May ? 18:33:29 10° NNE 18:38:35 65° ESE 18:43:45 10° S visible
24 May ? 20:15:54 10° WNW 20:18:10 13° W 20:20:26 10° WSW visible
25 May ? 06:46:57 10° SE 06:51:19 27° E 06:55:37 10° NNE visible
25 May ? 18:00:08 10° NE 18:04:36 30° ESE 18:09:07 10° S visible
25 May ? 19:39:16 10° NNW 19:43:41 28° W 19:48:09 10° SW visible
26 May ? 06:14:49 10° ESE 06:16:50 12° E 06:18:50 10° ENE visible
26 May ? 19:04:16 10° N 19:09:23 62° W 19:14:33 10° SSW visible
27 May ? 18:30:09 10° NNE 18:35:14 61° ESE 18:40:22 10° S visible
27 May ? 20:12:08 10° WNW 20:14:46 14° W 20:17:23 10° WSW visible
28 May ? 06:43:40 10° SE 06:47:55 25° E 06:52:07 10° NNE visible
28 May ? 17:56:53 10° NE 18:01:16 28° ESE 18:05:39 10° S visible
28 May ? 19:35:47 10° NNW 19:40:18 30° W 19:44:52 10° SW visible
29 May ? 06:11:56 10° ESE 06:13:25 11° E 06:14:53 10° ENE visible
29 May ? 19:00:52 10° N 19:06:00 67° WNW 19:11:12 10° SSW visible
30 May ? 18:26:50 10° NNE 18:31:52 56° ESE 18:36:57 10° S visible
30 May ? 20:08:27 10° NW 20:11:21 15° W 20:14:16 10° WSW visible
31 May ? 06:40:25 10° SE 06:44:31 24° E 06:48:34 10° NNE visible
31 May ? 17:53:40 10° ENE 17:57:55 27° ESE 18:02:12 10° SSE visible
31 May ? 19:32:17 10° NNW 19:36:54 33° W 19:41:34 10° SSW visible
